sat.trackr.live / text

‹ back to catalog

STARLINK-37039

NORAD 69361 · 2026-123J

PAYLOAD ACTIVE UNKNOWN

§ Identity

Operator
Country
US
Launch date
2026-06-04
Launch site
AFETR
Launch vehicle
Mass (kg)
RCS (m²)

Purposes: comms

External: N2YO · Heavens-Above · Gunter

§ Orbital elements

Epoch: 2026-09-20T02:42:15.247008Z

Period
93.85 min
Inclination
53.1576°
Eccentricity
0.0001357
Mean motion
15.34409207 rev/d
Perigee alt
461.7 km
Apogee alt
463.6 km
Semi-major
6,840.8 km
B*
6.1652e-4
RAAN
143.3203°
Arg perigee
90.5343°
Mean anomaly
269.5815°
Rev number
1,681

§ Raw data

STARLINK-370391 69361U 26123J   26263.11267647  .00020517  00000+0  61652-3 0  99992 69361  53.1576 143.3203 0001357  90.5343 269.5815 15.34409207 16817

JSON: /api/v1/satellites/69361 · /tle

For live sub-satellite position, see the globe view (requires WebGL).

§ Visibility from observer

Set your observer location to see the next 7 days of passes ≥ 10°. The values pass through the URL so the page stays shareable.

No JS? Fill the form by hand. The geolocation button needs JavaScript.